Terug naar catalogus

USA 417

ActiefMilitairVLEO
NORAD 61038·PAYLOAD·🇺🇸 United States

Gelanceerd Sep 6, 2024 vanaf Vandenberg Space Force Base

Loading…

Volgende Passages (komende 24 uur)

TLE

VerouderdSource: Mike McCants

Epoch: Aug 25, 2026, 22:43 UTC

1 61038U 24160T   26237.94683694 0.00000000  00000-0  00000-0 0    03
2 61038  70.0230 181.8494 0003000 252.0505 107.9495 14.96713200    07

Volg USA 417 in realtime met AllMySat

Download on the App Store